Date,TemperatureHighF,TemperatureAvgF,TemperatureLowF,DewpointHighF,DewpointAvgF,DewpointLowF,HumidityHigh,HumidityAvg,HumidityLow,PressureMaxIn,PressureMinIn,WindSpeedMaxMPH,WindSpeedAvgMPH,GustSpeedMaxMPH,PrecipitationSumIn
2013-11-1,86,76,67,74,71,66,98,86,63,29.95,29.84,13,3,20,0.01
2013-11-2,83,74,68,75,69,62,99,86,65,29.91,29.77,17,5,22,0.03
2013-11-3,83,71,62,62,52,43,90,56,27,30.01,29.89,18,8,28,0.00
2013-11-4,84,70,58,64,58,51,85,67,43,30.05,29.97,21,9,31,0.00
2013-11-5,86,75,67,71,67,62,92,78,56,30.02,29.95,20,9,28,0.00
2013-11-6,88,77,70,70,68,66,90,74,51,30.01,29.92,15,6,20,0.00
2013-11-7,86,74,66,72,68,64,97,83,59,29.98,29.89,12,4,18,0.00
2013-11-8,87,74,65,70,66,64,96,78,53,30.01,29.91,19,7,31,0.00
2013-11-9,84,74,67,71,67,63,90,82,65,30.06,29.99,16,8,22,0.00
2013-11-10,88,76,69,71,68,66,93,76,52,30.08,29.98,15,6,20,0.00
2013-11-11,88,76,67,70,66,63,94,74,46,30.07,29.98,14,5,21,0.00
2013-11-12,86,75,66,70,67,64,97,78,50,30.04,29.92,13,4,17,0.00
2013-11-13,75,67,58,68,57,49,90,71,57,30.18,29.98,26,12,32,0.00
2013-11-14,80,66,56,60,55,50,87,70,44,30.18,30.07,19,8,27,0.00
2013-11-15,81,72,62,68,64,58,87,76,63,30.10,29.95,15,6,21,0.00
2013-11-16,80,73,69,73,68,65,96,84,66,30.03,29.95,15,5,19,0.26
2013-11-17,88,76,69,71,69,66,95,81,54,30.01,29.92,15,3,20,0.00
2013-11-18,86,75,67,72,70,66,98,85,61,29.97,29.87,10,2,14,0.00
2013-11-19,87,76,70,74,72,69,98,86,58,29.89,29.81,11,3,14,0.00
2013-11-20,88,75,66,72,69,65,98,83,53,30.00,29.88,12,4,16,0.00
2013-11-21,88,76,70,74,71,68,97,86,59,30.09,29.98,14,4,20,0.24
2013-11-22,88,76,69,72,68,65,96,79,50,30.10,29.99,17,6,25,0.00
2013-11-23,86,74,65,72,67,62,93,80,57,30.04,29.92,11,5,16,0.00
2013-11-24,81,69,63,68,64,59,95,84,63,30.11,29.94,23,8,29,0.00
2013-11-25,79,70,63,65,62,59,90,76,55,30.13,29.98,19,9,29,0.00
2013-11-26,84,75,69,74,71,65,96,87,67,29.98,29.73,21,8,28,0.32
2013-11-27,76,69,52,72,62,47,97,79,54,30.12,29.71,22,10,31,0.06
2013-11-28,71,56,40,53,46,36,89,72,49,30.24,30.12,15,7,20,0.00
2013-11-29,79,64,53,60,55,-100,92,75,52,30.25,30.15,21,10,28,0.00
2013-11-30,81,65,56,67,61,53,97,85,61,30.21,30.09,19,7,28,0.00